Precipitable_Water
0.82 0.81 0.86 0.86 0.86 0.87 0.86 0.82 0.81 0.79 0.74 0.68 0.64 0.62 0.67 0.74 0.78 0.86 0.88 0.96 1.00 1.03 1.03 0.93 0.94 0.89 0.88
0.74 0.77 0.78 0.81 0.80 0.77 0.73 0.78 0.77 0.75 0.67 0.61 0.62 0.59 0.61 0.67 0.70 0.76 0.81 0.81 0.84 0.88 0.85 0.87 0.85 0.83 0.80
0.67 0.73 0.73 0.74 0.71 0.69 0.68 0.69 0.71 0.66 0.56 0.56 0.57 0.57 0.58 0.63 0.65 0.68 0.70 0.68 0.71 0.73 0.73 0.72 0.70 0.71 0.68
0.64 0.64 0.64 0.66 0.64 0.62 0.61 0.64 0.62 0.50 0.47 0.48 0.49 0.51 0.51 0.54 0.58 0.60 0.60 0.59 0.59 0.59 0.57 0.57 0.58 0.58 0.57
0.60 0.59 0.57 0.58 0.59 0.63 0.61 0.53 0.46 0.42 0.40 0.38 0.36 0.36 0.35 0.36 0.40 0.46 0.49 0.49 0.49 0.50 0.51 0.50 0.49 0.48 0.49
0.59 0.57 0.59 0.62 0.64 0.59 0.50 0.43 0.38 0.41 0.35 0.31 0.33 0.29 0.31 0.31 0.32 0.30 0.29 0.30 0.33 0.36 0.38 0.38 0.38 0.36 0.36
0.62 0.63 0.65 0.66 0.58 0.48 0.45 0.41 0.35 0.33 0.30 0.29 0.31 0.29 0.32 0.34 0.35 0.33 0.30 0.30 0.31 0.31 0.31 0.31 0.33 0.32 0.32
0.70 0.70 0.67 0.58 0.49 0.47 0.41 0.38 0.35 0.34 0.33 0.26 0.32 0.31 0.34 0.36 0.38 0.39 0.36 0.36 0.36 0.38 0.37 0.37 0.37 0.37 0.37
0.69 0.67 0.56 0.44 0.41 0.38 0.32 0.31 0.29 0.31 0.35 0.32 0.33 0.33 0.35 0.36 0.40 0.42 0.42 0.41 0.40 0.40 0.40 0.39 0.39 0.39 0.39
0.44 0.38 0.37 0.38 0.38 0.36 0.35 0.31 0.31 0.31 0.37 0.35 0.37 0.37 0.34 0.39 0.40 0.42 0.43 0.44 0.43 0.41 0.41 0.41 0.41 0.39 0.39
0.36 0.37 0.37 0.37 0.36 0.36 0.38 0.37 0.34 0.34 0.42 0.43 0.40 0.39 0.38 0.38 0.41 0.42 0.43 0.42 0.42 0.42 0.42 0.43 0.43 0.42 0.40
0.33 0.34 0.36 0.37 0.42 0.41 0.41 0.40 0.41 0.41 0.45 0.45 0.42 0.40 0.38 0.37 0.37 0.42 0.44 0.44 0.43 0.41 0.41 0.42 0.44 0.44 0.44
0.36 0.36 0.38 0.43 0.42 0.39 0.38 0.39 0.43 0.44 0.43 0.44 0.42 0.40 0.39 0.37 0.37 0.40 0.41 0.43 0.45 0.42 0.42 0.42 0.41 0.42 0.39
0.34 0.39 0.40 0.40 0.36 0.36 0.35 0.38 0.36 0.35 0.39 0.41 0.39 0.38 0.36 0.36 0.38 0.37 0.39 0.39 0.43 0.44 0.44 0.43 0.43 0.43 0.41
0.38 0.37 0.36 0.34 0.34 0.37 0.38 0.36 0.31 0.31 0.32 0.34 0.36 0.36 0.36 0.37 0.36 0.36 0.41 0.43 0.44 0.44 0.43 0.40 0.41 0.41 0.39
0.37 0.35 0.33 0.33 0.33 0.35 0.33 0.31 0.31 0.30 0.28 0.29 0.31 0.31 0.33 0.37 0.39 0.39 0.42 0.43 0.44 0.44 0.43 0.39 0.36 0.39 0.39
0.32 0.32 0.33 0.32 0.31 0.29 0.29 0.31 0.28 0.27 0.28 0.29 0.30 0.29 0.28 0.28 0.36 0.47 0.41 0.42 0.43 0.42 0.41 0.40 0.38 0.35 0.36
Wind_Speed
30 29 28 28 27 26 26 24 22 20 18 16 14 13 11 10 8 7 6 7 8 10 11 11 11 12 12
30 29 28 28 27 26 25 24 21 19 17 15 14 13 12 12 11 10 9 9 10 11 11 11 12 12 12
28 28 28 28 27 25 24 22 20 18 16 15 14 14 13 13 12 12 11 11 12 12 13 13 12 12 12
28 27 26 25 25 24 22 20 18 17 16 15 15 14 14 13 12 13 12 13 13 13 13 12 12 12 13
27 26 25 24 24 22 20 18 17 17 17 16 16 15 14 14 13 14 13 13 13 13 13 12 12 13 13
25 25 24 22 21 20 18 17 17 18 17 16 16 15 14 14 13 13 14 14 13 13 13 13 13 13 13
23 22 22 21 20 18 18 17 17 16 16 16 15 15 14 14 13 13 13 13 13 13 13 13 13 13 13
22 21 20 19 19 19 18 17 17 16 16 15 15 15 14 14 13 13 14 14 14 13 13 13 13 13 14
19 18 18 17 17 17 17 17 16 16 16 14 14 14 14 14 14 14 14 15 15 15 15 15 15 16 16
15 14 14 14 15 16 17 16 15 14 15 14 14 14 14 15 15 15 16 16 16 17 17 17 18 18 18
14 14 14 14 14 14 15 16 15 14 14 14 14 14 14 14 15 16 17 17 18 18 19 19 19 19 20
14 14 14 14 15 15 15 15 15 16 15 15 14 15 15 15 16 17 18 18 19 20 21 21 21 21 21
16 16 15 15 15 15 15 15 15 16 16 16 17 17 17 17 17 18 18 20 21 22 22 22 21 22 22
17 17 17 17 17 17 17 17 18 18 18 18 19 19 19 20 20 21 21 21 21 21 21 21 22 22 23
18 18 18 18 19 19 19 19 19 19 20 20 21 21 21 21 21 22 23 22 22 22 22 23 23 24 24
19 19 20 20 21 21 21 22 22 22 22 21 21 22 22 23 24 24 23 22 22 22 22 23 24 23 23
21 22 22 22 23 24 24 24 24 25 25 25 24 24 24 24 23 24 23 22 21 22 23 23 23 23 23
Wind_Direction
282 280 277 276 277 278 281 281 282 278 276 274 274 274 271 269 269 256 239 223 214 221 229 244 243 257 262
278 277 275 275 275 277 277 277 274 271 270 265 266 266 264 262 260 252 244 234 236 236 240 246 253 259 265
277 276 275 274 274 273 273 272 266 264 262 260 261 263 264 258 252 248 244 244 243 244 248 254 257 259 263
276 275 275 273 270 270 268 262 259 258 257 258 259 260 260 253 249 247 247 247 246 247 250 254 256 260 264
274 273 272 271 267 264 258 254 255 255 256 259 258 258 256 253 250 250 249 248 246 247 250 253 256 260 264
273 271 269 268 264 256 250 250 254 255 255 254 257 254 252 250 251 251 249 245 246 247 250 254 258 261 264
272 269 267 263 257 249 248 251 255 256 252 254 252 249 249 248 251 251 248 245 246 248 252 255 257 260 265
270 268 264 259 252 250 247 251 255 253 252 252 249 246 246 248 252 253 248 247 248 250 253 256 259 262 267
268 263 259 253 247 247 248 251 253 254 248 248 246 245 247 250 252 255 252 250 251 252 256 260 262 265 270
266 259 254 250 245 248 249 248 250 249 246 245 246 247 253 252 255 257 256 256 256 256 259 262 265 268 272
259 254 253 250 249 248 247 246 245 248 246 245 248 248 253 260 261 260 259 259 259 260 262 264 266 270 272
253 252 249 250 252 249 247 247 247 249 245 247 252 253 257 264 266 265 263 264 264 265 265 266 267 270 273
255 253 252 250 248 248 250 249 251 250 249 254 256 258 260 265 269 269 270 269 268 268 267 266 267 270 274
253 253 254 252 250 251 252 252 254 255 256 259 260 261 264 268 271 271 272 274 272 268 266 266 268 270 275
255 257 252 253 252 253 254 255 256 259 261 261 262 263 266 269 273 274 276 273 269 268 268 269 270 272 274
258 255 255 255 256 255 257 258 260 260 261 263 264 266 269 271 270 276 276 273 270 268 269 270 273 271 271
259 259 259 258 258 258 259 261 261 261 262 263 264 265 268 271 275 271 272 273 271 270 270 270 272 272 273